Time,TemperatureF,DewpointF,PressureIn,WindDirection,WindDirectionDegrees,WindSpeedMPH,WindSpeedGustMPH,Humidity,HourlyPrecipIn,Conditions,Clouds,dailyrainin,SoftwareType,DateUTC
2013-01-08 00:02:00,44.0,41.0,-100.00,South,190,0.0,-999.0,88,0.01,,,-99.99,,2013-01-08 06:02:00,
2013-01-08 00:12:00,44.0,41.0,-100.00,South,190,0.0,-999.0,88,0.01,,,-99.99,,2013-01-08 06:12:00,
2013-01-08 00:22:00,43.0,40.0,-100.00,South,190,0.0,-999.0,89,0.01,,,-99.99,,2013-01-08 06:22:00,
2013-01-08 00:32:00,43.0,40.0,-100.00,SSE,167,0.0,-999.0,89,0.01,,,-99.99,,2013-01-08 06:32:00,
2013-01-08 00:42:00,43.0,40.0,-100.00,SSE,167,0.0,-999.0,89,0.01,,,-99.99,,2013-01-08 06:42:00,
2013-01-08 00:53:00,43.0,40.0,-100.00,South,184,0.0,-999.0,90,0.01,,,-99.99,,2013-01-08 06:53:00,
2013-01-08 01:02:00,42.0,40.0,-100.00,South,191,0.0,-999.0,91,0.01,,,-99.99,,2013-01-08 07:02:00,
2013-01-08 01:12:00,42.0,40.0,-100.00,South,191,0.0,-999.0,91,0.01,,,-99.99,,2013-01-08 07:12:00,
2013-01-08 01:22:00,42.0,40.0,-100.00,South,179,0.0,-999.0,92,0.01,,,-99.99,,2013-01-08 07:22:00,
2013-01-08 01:32:00,41.0,39.0,-100.00,South,183,0.0,-999.0,93,0.01,,,-99.99,,2013-01-08 07:32:00,
2013-01-08 01:42:00,41.0,39.0,-100.00,South,183,0.0,-999.0,93,0.01,,,-99.99,,2013-01-08 07:42:00,
2013-01-08 01:52:00,41.0,39.0,-100.00,South,183,0.0,-999.0,93,0.01,,,-99.99,,2013-01-08 07:52:00,
2013-01-08 02:02:00,40.0,39.0,-100.00,South,183,0.0,-999.0,96,0.01,,,-99.99,,2013-01-08 08:02:00,
2013-01-08 02:12:00,40.0,39.0,-100.00,South,183,0.0,-999.0,96,0.01,,,-99.99,,2013-01-08 08:12:00,
2013-01-08 02:22:00,40.0,39.0,-100.00,South,183,0.0,-999.0,96,0.01,,,-99.99,,2013-01-08 08:22:00,
2013-01-08 02:32:00,40.0,39.0,-100.00,South,183,0.0,-999.0,96,0.01,,,-99.99,,2013-01-08 08:32:00,
2013-01-08 02:42:00,40.0,39.0,-100.00,South,183,0.0,-999.0,96,0.01,,,-99.99,,2013-01-08 08:42:00,
2013-01-08 02:53:00,40.0,39.0,-100.00,South,183,0.0,-999.0,97,0.01,,,-99.99,,2013-01-08 08:53:00,
2013-01-08 03:02:00,40.0,39.0,-100.00,South,183,0.0,-999.0,98,0.01,,,-99.99,,2013-01-08 09:02:00,
2013-01-08 03:12:00,40.0,39.0,-100.00,South,183,0.0,-999.0,98,0.01,,,-99.99,,2013-01-08 09:12:00,
2013-01-08 03:22:00,40.0,39.0,-100.00,South,183,0.0,-999.0,98,0.01,,,-99.99,,2013-01-08 09:22:00,
2013-01-08 03:32:00,40.0,39.0,-100.00,South,183,0.0,-999.0,97,0.01,,,-99.99,,2013-01-08 09:32:00,
2013-01-08 03:42:00,40.0,39.0,-100.00,South,183,0.0,-999.0,97,0.01,,,-99.99,,2013-01-08 09:42:00,
2013-01-08 03:52:00,40.0,39.0,-100.00,South,183,0.0,-999.0,97,0.01,,,-99.99,,2013-01-08 09:52:00,
2013-01-08 04:02:00,41.0,40.0,-100.00,South,174,0.0,-999.0,97,0.01,,,-99.99,,2013-01-08 10:02:00,
2013-01-08 04:12:00,41.0,40.0,-100.00,South,174,0.0,-999.0,97,0.01,,,-99.99,,2013-01-08 10:12:00,
2013-01-08 04:22:00,41.0,40.0,-100.00,SSE,158,0.0,-999.0,97,0.01,,,-99.99,,2013-01-08 10:22:00,
2013-01-08 04:32:00,41.0,40.0,-100.00,South,190,0.0,-999.0,97,0.01,,,-99.99,,2013-01-08 10:32:00,
2013-01-08 04:42:00,41.0,40.0,-100.00,South,190,0.0,-999.0,97,0.01,,,-99.99,,2013-01-08 10:42:00,
2013-01-08 04:52:00,41.0,40.0,-100.00,South,174,0.0,-999.0,97,0.01,,,-99.99,,2013-01-08 10:52:00,
2013-01-08 05:02:00,40.0,39.0,-100.00,South,191,0.0,-999.0,98,0.01,,,-99.99,,2013-01-08 11:02:00,
2013-01-08 05:12:00,40.0,39.0,-100.00,South,191,0.0,-999.0,98,0.01,,,-99.99,,2013-01-08 11:12:00,
2013-01-08 05:22:00,40.0,39.0,-100.00,SSE,165,0.0,-999.0,98,0.01,,,-99.99,,2013-01-08 11:22:00,
2013-01-08 05:32:00,40.0,40.0,-100.00,South,173,0.0,-999.0,99,0.01,,,-99.99,,2013-01-08 11:32:00,
2013-01-08 05:42:00,40.0,40.0,-100.00,South,173,0.0,-999.0,99,0.01,,,-99.99,,2013-01-08 11:42:00,
2013-01-08 05:53:00,40.0,40.0,-100.00,South,173,0.0,-999.0,100,0.01,,,-99.99,,2013-01-08 11:53:00,
2013-01-08 06:02:00,40.0,40.0,-100.00,South,173,0.0,-999.0,100,0.01,,,-99.99,,2013-01-08 12:02:00,
2013-01-08 06:12:00,40.0,40.0,-100.00,South,173,0.0,-999.0,100,0.01,,,-99.99,,2013-01-08 12:12:00,
2013-01-08 06:22:00,40.0,40.0,-100.00,South,173,0.0,-999.0,100,0.01,,,-99.99,,2013-01-08 12:22:00,
2013-01-08 06:32:00,40.0,40.0,-100.00,SSE,165,0.0,-999.0,100,0.01,,,-99.99,,2013-01-08 12:32:00,
2013-01-08 06:42:00,40.0,40.0,-100.00,SSE,165,0.0,-999.0,100,0.01,,,-99.99,,2013-01-08 12:42:00,
2013-01-08 06:53:00,40.0,40.0,-100.00,South,186,0.0,-999.0,100,0.01,,,-99.99,,2013-01-08 12:53:00,
2013-01-08 07:03:00,40.0,40.0,-100.00,SSE,159,0.0,-999.0,100,0.01,,,-99.99,,2013-01-08 13:03:00,
2013-01-08 07:12:00,40.0,40.0,-100.00,SSE,159,0.0,-999.0,100,0.01,,,-99.99,,2013-01-08 13:12:00,
2013-01-08 07:22:00,40.0,40.0,-100.00,SSE,155,0.0,-999.0,100,0.01,,,-99.99,,2013-01-08 13:22:00,
2013-01-08 07:32:00,40.0,40.0,-100.00,South,173,0.0,-999.0,100,0.01,,,-99.99,,2013-01-08 13:32:00,
2013-01-08 07:42:00,40.0,40.0,-100.00,South,173,0.0,-999.0,100,0.01,,,-99.99,,2013-01-08 13:42:00,
2013-01-08 07:53:00,40.0,40.0,-100.00,SSE,156,3.0,-999.0,100,0.01,,,-99.99,,2013-01-08 13:53:00,
2013-01-08 08:02:00,41.0,41.0,-100.00,South,177,0.0,-999.0,100,0.01,,,-99.99,,2013-01-08 14:02:00,
2013-01-08 08:12:00,41.0,41.0,-100.00,South,177,0.0,-999.0,100,0.01,,,-99.99,,2013-01-08 14:12:00,
2013-01-08 08:23:00,41.0,41.0,-100.00,SSE,162,0.0,-999.0,100,0.01,,,-99.99,,2013-01-08 14:23:00,
2013-01-08 08:33:00,42.0,42.0,-100.00,ESE,105,0.0,-999.0,100,0.01,,,-99.99,,2013-01-08 14:33:00,
2013-01-08 08:42:00,42.0,42.0,-100.00,ESE,105,0.0,-999.0,100,0.01,,,-99.99,,2013-01-08 14:42:00,
2013-01-08 08:53:00,42.0,42.0,-100.00,SSE,152,0.0,-999.0,99,0.01,,,-99.99,,2013-01-08 14:53:00,
2013-01-08 09:02:00,42.0,41.0,-100.00,SSE,159,0.0,-999.0,98,0.01,,,-99.99,,2013-01-08 15:02:00,
2013-01-08 09:12:00,42.0,41.0,-100.00,SSE,159,0.0,-999.0,98,0.01,,,-99.99,,2013-01-08 15:12:00,
2013-01-08 09:22:00,43.0,42.0,-100.00,South,180,0.0,-999.0,98,0.01,,,-99.99,,2013-01-08 15:22:00,
2013-01-08 09:33:00,44.0,43.0,-100.00,South,183,5.0,-999.0,96,0.01,,,-99.99,,2013-01-08 15:33:00,
2013-01-08 09:42:00,44.0,43.0,-100.00,South,183,5.0,-999.0,96,0.01,,,-99.99,,2013-01-08 15:42:00,
2013-01-08 09:53:00,45.0,44.0,-100.00,South,172,0.0,-999.0,96,0.01,,,-99.99,,2013-01-08 15:53:00,
2013-01-08 10:03:00,46.0,44.0,-100.00,SE,129,4.0,-999.0,94,0.01,,,-99.99,,2013-01-08 16:03:00,
2013-01-08 10:12:00,46.0,44.0,-100.00,SE,129,4.0,-999.0,94,0.01,,,-99.99,,2013-01-08 16:12:00,
2013-01-08 10:22:00,47.0,45.0,-100.00,ESE,122,0.0,-999.0,94,0.01,,,-99.99,,2013-01-08 16:22:00,
2013-01-08 10:33:00,49.0,47.0,-100.00,SSE,153,0.0,-999.0,92,0.01,,,-99.99,,2013-01-08 16:33:00,
2013-01-08 10:42:00,49.0,47.0,-100.00,SSE,153,0.0,-999.0,92,0.01,,,-99.99,,2013-01-08 16:42:00,
2013-01-08 10:53:00,51.0,48.0,-100.00,SSE,162,0.0,-999.0,91,0.01,,,-99.99,,2013-01-08 16:53:00,
2013-01-08 11:03:00,52.0,49.0,-100.00,SE,143,0.0,-999.0,89,0.01,,,-99.99,,2013-01-08 17:03:00,
2013-01-08 11:12:00,52.0,49.0,-100.00,SE,143,0.0,-999.0,89,0.01,,,-99.99,,2013-01-08 17:12:00,
2013-01-08 11:23:00,53.0,50.0,-100.00,East,87,0.0,-999.0,88,0.01,,,-99.99,,2013-01-08 17:23:00,
2013-01-08 11:33:00,54.0,50.0,-100.00,SE,142,3.0,-999.0,87,0.01,,,-99.99,,2013-01-08 17:33:00,
2013-01-08 11:43:00,54.0,50.0,-100.00,SE,142,3.0,-999.0,87,0.01,,,-99.99,,2013-01-08 17:43:00,
2013-01-08 11:53:00,55.0,51.0,-100.00,East,89,0.0,-999.0,85,0.01,,,-99.99,,2013-01-08 17:53:00,
2013-01-08 12:03:00,56.0,51.0,-100.00,South,174,0.0,-999.0,84,0.01,,,-99.99,,2013-01-08 18:03:00,
2013-01-08 12:12:00,56.0,51.0,-100.00,South,174,0.0,-999.0,84,0.01,,,-99.99,,2013-01-08 18:12:00,
2013-01-08 12:23:00,57.0,53.0,-100.00,South,181,0.0,-999.0,86,0.01,,,-99.99,,2013-01-08 18:23:00,
2013-01-08 12:33:00,57.0,52.0,-100.00,South,177,0.0,-999.0,83,0.01,,,-99.99,,2013-01-08 18:33:00,
2013-01-08 12:43:00,57.0,52.0,-100.00,South,177,0.0,-999.0,83,0.01,,,-99.99,,2013-01-08 18:43:00,
2013-01-08 12:53:00,58.0,53.0,-100.00,SE,138,0.0,-999.0,82,0.01,,,-99.99,,2013-01-08 18:53:00,
2013-01-08 13:03:00,58.0,52.0,-100.00,South,177,0.0,-999.0,81,0.01,,,-99.99,,2013-01-08 19:03:00,
2013-01-08 13:12:00,58.0,52.0,-100.00,South,177,0.0,-999.0,81,0.01,,,-99.99,,2013-01-08 19:12:00,
2013-01-08 13:22:00,58.0,53.0,-100.00,East,91,0.0,-999.0,82,0.01,,,-99.99,,2013-01-08 19:22:00,
2013-01-08 13:32:00,56.0,52.0,-100.00,SSE,163,0.0,-999.0,85,0.01,,,-99.99,,2013-01-08 19:32:00,
2013-01-08 13:42:00,56.0,52.0,-100.00,SSE,163,0.0,-999.0,85,0.01,,,-99.99,,2013-01-08 19:42:00,
2013-01-08 13:53:00,58.0,53.0,-100.00,SE,135,0.0,-999.0,82,0.01,,,-99.99,,2013-01-08 19:53:00,
2013-01-08 14:02:00,60.0,52.0,-100.00,East,89,0.0,-999.0,75,0.01,,,-99.99,,2013-01-08 20:02:00,
2013-01-08 14:12:00,60.0,52.0,-100.00,East,89,0.0,-999.0,75,0.01,,,-99.99,,2013-01-08 20:12:00,
2013-01-08 14:23:00,60.0,52.0,-100.00,East,84,3.0,-999.0,76,0.01,,,-99.99,,2013-01-08 20:23:00,
2013-01-08 14:33:00,59.0,51.0,-100.00,South,181,0.0,-999.0,75,0.01,,,-99.99,,2013-01-08 20:33:00,
2013-01-08 14:43:00,59.0,51.0,-100.00,South,181,0.0,-999.0,75,0.01,,,-99.99,,2013-01-08 20:43:00,
2013-01-08 14:53:00,58.0,50.0,-100.00,South,187,0.0,-999.0,76,0.01,,,-99.99,,2013-01-08 20:53:00,
2013-01-08 15:02:00,58.0,51.0,-100.00,South,170,0.0,-999.0,78,0.01,,,-99.99,,2013-01-08 21:02:00,
2013-01-08 15:12:00,58.0,51.0,-100.00,South,170,0.0,-999.0,78,0.01,,,-99.99,,2013-01-08 21:12:00,
2013-01-08 15:22:00,58.0,52.0,-100.00,ESE,105,0.0,-999.0,81,0.01,,,-99.99,,2013-01-08 21:22:00,
2013-01-08 15:33:00,57.0,52.0,-100.00,ESE,105,0.0,-999.0,83,0.01,,,-99.99,,2013-01-08 21:33:00,
2013-01-08 15:43:00,57.0,52.0,-100.00,ESE,105,0.0,-999.0,83,0.01,,,-99.99,,2013-01-08 21:43:00,
2013-01-08 15:53:00,58.0,53.0,-100.00,SSE,152,0.0,-999.0,84,0.01,,,-99.99,,2013-01-08 21:53:00,
2013-01-08 16:03:00,57.0,53.0,-100.00,SSE,152,0.0,-999.0,85,0.01,,,-99.99,,2013-01-08 22:03:00,
2013-01-08 16:12:00,57.0,53.0,-100.00,SSE,152,0.0,-999.0,85,0.01,,,-99.99,,2013-01-08 22:12:00,
2013-01-08 16:22:00,57.0,53.0,-100.00,ESE,105,0.0,-999.0,87,0.01,,,-99.99,,2013-01-08 22:22:00,
2013-01-08 16:32:00,57.0,54.0,-100.00,East,101,0.0,-999.0,89,0.01,,,-99.99,,2013-01-08 22:32:00,
2013-01-08 16:42:00,57.0,54.0,-100.00,East,101,0.0,-999.0,89,0.01,,,-99.99,,2013-01-08 22:42:00,
2013-01-08 16:53:00,55.0,52.0,-100.00,East,101,0.0,-999.0,91,0.01,,,-99.99,,2013-01-08 22:53:00,
2013-01-08 17:02:00,54.0,52.0,-100.00,East,101,0.0,-999.0,94,0.01,,,-99.99,,2013-01-08 23:02:00,
2013-01-08 17:12:00,54.0,52.0,-100.00,East,101,0.0,-999.0,94,0.01,,,-99.99,,2013-01-08 23:12:00,
2013-01-08 17:22:00,53.0,52.0,-100.00,East,101,0.0,-999.0,96,0.01,,,-99.99,,2013-01-08 23:22:00,
2013-01-08 17:32:00,53.0,53.0,-100.00,East,101,0.0,-999.0,99,0.01,,,-99.99,,2013-01-08 23:32:00,
2013-01-08 17:43:00,53.0,53.0,-100.00,East,101,0.0,-999.0,99,0.01,,,-99.99,,2013-01-08 23:43:00,
2013-01-08 17:53:00,53.0,53.0,-100.00,East,101,0.0,-999.0,99,0.01,,,-99.99,,2013-01-08 23:53:00,
2013-01-08 18:02:00,52.0,52.0,-100.00,East,101,0.0,-999.0,100,0.01,,,-99.99,,2013-01-09 00:02:00,
2013-01-08 18:12:00,52.0,52.0,-100.00,East,101,0.0,-999.0,100,0.01,,,-99.99,,2013-01-09 00:12:00,
2013-01-08 18:22:00,52.0,52.0,-100.00,East,101,0.0,-999.0,100,0.01,,,-99.99,,2013-01-09 00:22:00,
2013-01-08 18:33:00,52.0,52.0,-100.00,SE,134,0.0,-999.0,100,0.01,,,-99.99,,2013-01-09 00:33:00,
2013-01-08 18:42:00,52.0,52.0,-100.00,SE,134,0.0,-999.0,100,0.01,,,-99.99,,2013-01-09 00:42:00,
2013-01-08 18:53:00,52.0,52.0,-100.00,SE,134,0.0,-999.0,100,0.01,,,-99.99,,2013-01-09 00:53:00,
2013-01-08 19:02:00,52.0,52.0,-100.00,East,84,0.0,-999.0,99,0.01,,,-99.99,,2013-01-09 01:02:00,
2013-01-08 19:12:00,52.0,52.0,-100.00,East,84,0.0,-999.0,99,0.01,,,-99.99,,2013-01-09 01:12:00,
2013-01-08 19:22:00,52.0,51.0,-100.00,ESE,118,0.0,-999.0,98,0.01,,,-99.99,,2013-01-09 01:22:00,
2013-01-08 19:32:00,52.0,51.0,-100.00,ESE,104,0.0,-999.0,98,0.01,,,-99.99,,2013-01-09 01:32:00,
2013-01-08 19:42:00,52.0,51.0,-100.00,ESE,104,0.0,-999.0,98,0.01,,,-99.99,,2013-01-09 01:42:00,
2013-01-08 19:52:00,52.0,51.0,-100.00,East,96,0.0,-999.0,98,0.01,,,-99.99,,2013-01-09 01:52:00,
2013-01-08 20:02:00,52.0,52.0,-100.00,SE,125,5.0,-999.0,99,0.01,,,-99.99,,2013-01-09 02:02:00,
2013-01-08 20:12:00,52.0,52.0,-100.00,SE,125,5.0,-999.0,99,0.01,,,-99.99,,2013-01-09 02:12:00,
2013-01-08 20:22:00,52.0,52.0,-100.00,ENE,60,0.0,-999.0,99,0.01,,,-99.99,,2013-01-09 02:22:00,
2013-01-08 20:32:00,51.0,51.0,-100.00,ENE,60,0.0,-999.0,100,0.01,,,-99.99,,2013-01-09 02:32:00,
2013-01-08 20:42:00,51.0,51.0,-100.00,ENE,60,0.0,-999.0,100,0.01,,,-99.99,,2013-01-09 02:42:00,
2013-01-08 20:53:00,52.0,52.0,-100.00,ESE,111,0.0,-999.0,100,0.01,,,-99.99,,2013-01-09 02:53:00,
2013-01-08 21:03:00,51.0,51.0,-100.00,SE,138,0.0,-999.0,100,0.01,,,-99.99,,2013-01-09 03:03:00,
2013-01-08 21:12:00,51.0,51.0,-100.00,SE,138,0.0,-999.0,100,0.01,,,-99.99,,2013-01-09 03:12:00,
2013-01-08 21:22:00,51.0,51.0,-100.00,SE,138,0.0,-999.0,100,0.01,,,-99.99,,2013-01-09 03:22:00,
2013-01-08 21:33:00,51.0,51.0,-100.00,SE,146,0.0,-999.0,100,0.01,,,-99.99,,2013-01-09 03:33:00,
2013-01-08 21:42:00,51.0,51.0,-100.00,SE,146,0.0,-999.0,100,0.01,,,-99.99,,2013-01-09 03:42:00,
2013-01-08 21:53:00,51.0,51.0,-100.00,ESE,115,3.0,-999.0,100,0.01,,,-99.99,,2013-01-09 03:53:00,
2013-01-08 22:02:00,51.0,51.0,-100.00,SE,136,0.0,-999.0,100,0.01,,,-99.99,,2013-01-09 04:02:00,
2013-01-08 22:12:00,51.0,51.0,-100.00,SE,136,0.0,-999.0,100,0.01,,,-99.99,,2013-01-09 04:12:00,
2013-01-08 22:22:00,51.0,51.0,-100.00,ESE,121,0.0,-999.0,100,0.01,,,-99.99,,2013-01-09 04:22:00,
2013-01-08 22:32:00,51.0,51.0,-100.00,SSE,148,0.0,-999.0,100,0.01,,,-99.99,,2013-01-09 04:32:00,
2013-01-08 22:42:00,51.0,51.0,-100.00,ESE,107,0.0,-999.0,100,0.01,,,-99.99,,2013-01-09 04:42:00,
2013-01-08 22:52:00,51.0,51.0,-100.00,ESE,107,0.0,-999.0,100,0.01,,,-99.99,,2013-01-09 04:52:00,
2013-01-08 23:03:00,50.0,50.0,-100.00,SE,124,0.0,-999.0,100,0.01,,,-99.99,,2013-01-09 05:03:00,
2013-01-08 23:12:00,50.0,50.0,-100.00,SE,124,0.0,-999.0,100,0.01,,,-99.99,,2013-01-09 05:12:00,
2013-01-08 23:22:00,50.0,50.0,-100.00,ESE,122,0.0,-999.0,100,0.01,,,-99.99,,2013-01-09 05:22:00,
2013-01-08 23:33:00,50.0,50.0,-100.00,ESE,103,0.0,-999.0,100,0.01,,,-99.99,,2013-01-09 05:33:00,
2013-01-08 23:42:00,50.0,50.0,-100.00,ESE,103,0.0,-999.0,100,0.01,,,-99.99,,2013-01-09 05:42:00,
2013-01-08 23:52:00,51.0,51.0,-100.00,SSE,166,0.0,-999.0,100,0.01,,,-99.99,,2013-01-09 05:52:00,